Flag for Peru Weather past 2 weeks in Iquitos, Loreto, Peru

Now
81 °F

Scattered showers. Scattered clouds.


Feels Like: 86 °F
Forecast: 70 / 91 °F
Wind: 6 mph from North

Location: Iquitos Airport

Current Time: Jul 25, 2014 at 1:53:42 PM

Latest Report: Jul 25, 2014 at 1:00 PM


Visibility: N/A

Pressure: 29.89 "Hg

Humidity: 84%

Dew point: 75 °F

Location of IquitosLocation

Historic Weather in Iquitos — Graph

°F

Iquitos temperature yesterday

Maximum temperature yesterday: 88 °F (at 4:00 PM)
Minimum temperature yesterday: 73 °F (at 3:00 AM)
Average temperature yesterday: 79 °F

Past Weeks' High & Low Weather Summary

 TemperatureHumidityPressure
High91 °F (Jul 23, 2:00 PM)100% (Jul 13, 4:00 AM)30.07 "Hg (Jul 13, 4:00 AM)
Low70 °F (Jul 11, 5:00 AM)52% (Jul 23, 2:00 PM)29.80 "Hg (Jul 23, 3:00 PM)
Average77 °F85%29.96 "Hg
* Reported Jul 10 12:00 Noon — Jul 25 12:00 Noon, Iquitos, Weather by CustomWeather, © 2014

Note: Actual official high and low records may vary slightly from our data, if they occured in-between our weather recording intervals... More about our weather records

Advertising

Iquitos weather history for previous 24 hours

 ConditionsComfort  
Time TempWeatherWind HumidityBarometerVisibility
12:00 PM
Jul 25
79 °FScattered showers. Scattered clouds.3 mph84%29.92 "HgN/A
11:00 AM86 °FPartly sunny.3 mph66%29.95 "HgN/A
10:00 AM86 °FPartly sunny.5 mph66%29.95 "HgN/A
9:00 AM82 °FPartly sunny.3 mph74%29.98 "HgN/A
8:00 AM79 °FScattered clouds.3 mph84%29.98 "HgN/A
7:00 AM73 °FLight fog.No wind94%29.95 "Hg2 mi
6:03 AM72 °FScattered clouds.No wind100%29.92 "Hg3 mi
5:00 AM73 °FPassing clouds.No wind94%29.89 "Hg5 mi
4:00 AM73 °FPassing clouds.No wind94%29.89 "Hg5 mi
3:00 AM75 °FPassing clouds.No wind94%29.89 "HgN/A
2:00 AM75 °FPassing clouds.No wind94%29.89 "HgN/A
1:00 AM75 °FPassing clouds.3 mph94%29.92 "HgN/A
12:00 AM75 °FPassing clouds.3 mph94%29.92 "HgN/A
11:00 PM
Jul 24
77 °FPassing clouds.No wind89%29.92 "HgN/A
10:00 PM77 °FPassing clouds.No wind89%29.92 "HgN/A
9:00 PM77 °FPassing clouds.3 mph89%29.89 "HgN/A
8:00 PM79 °FPassing clouds.No wind89%29.86 "HgN/A
7:00 PM81 °FPassing clouds.No wind84%29.83 "HgN/A
6:00 PM84 °FPassing clouds.2 mph74%29.83 "HgN/A
5:00 PM88 °FScattered clouds.3 mph62%29.80 "HgN/A
4:00 PM88 °FScattered clouds.5 mph62%29.80 "HgN/A
3:00 PM86 °FScattered showers. Partly sunny.2 mph66%29.83 "HgN/A
2:00 PM86 °FScattered showers. Partly sunny.5 mph66%29.86 "HgN/A
1:00 PM86 °FBroken clouds.6 mph70%29.92 "HgN/A
Weather by CustomWeather, © 2014

See weather overviewHow to use our weather pages